Content
SEND FEEDBACK

Sweden Flag

HACKEFORS, SWEDEN


Home > Europe > Sweden
Elevation: 174 feet     Latitude: 58 24N     Longitude: 015 40E

WEATHER
 
SELECT A DAY
Number of Records: 102,751;   Date Range: 6/19/04 - 3/22/16
 
SHARE

PRINT THIS DATA

[ ← Previous Day ]
WEATHER ALMANAC - FEBRUARY 1, 2013
[ Next Day → ]
[ °C ]   °F
Weather ElementAverageHighLow
Temperature25.5 °F34 °F (2:00 pm) (7:20 pm)
Dewpoint25.9 °F32 °F (7:20 pm)23 °F (5:50 am)
Humidity92.7 %100 % (3:50 am)74 % (2:00 pm)
Barometer29.34 in29.38 in (8:00 am)29.30 in (12:20 am)
Wind Speed4.7 mph6.9 mph (12:20 am)
Weather ElementAverage
Visibility11 mi
Wind DirectionWSW (232.8 °)

Weather ElementTotal
Precipitation---
Heating Degree Days48 (Base 65)
Averaged from 64 records on February 1, 2013
WEATHER CONDITIONS BREAKOUT
WIND DIRECTION BREAKOUT
WEATHER BY HOUR - FEBRUARY 1, 2013
[ °C ]   °F
Local TimeTemperatureDewpointHumidityBarometerVisibilityWind DirectionWind SpeedGust SpeedPrecipitationEventsConditions
12:20 AM28.4 °F26.6 °F93 %29.30 in6.2 miWest (270°)6.9 mph
12:50 AM28.4 °F26.6 °F93 %29.30 in6.2 miWest (260°)6.9 mph
1:00 AM29.0 °F26.0 °F86 %29.32 in31.0 miWSW (250°)6.7 mph
1:20 AM28.4 °F24.8 °F86 %29.30 in6.2 miWest (260°)5.8 mph
1:50 AM28.4 °F26.6 °F93 %29.30 in6.2 miWest (260°)5.8 mph
2:00 AM29.0 °F27.0 °F87 %29.33 in31.0 miWest (270°)4.5 mph
2:20 AM28.4 °F26.6 °F93 %29.30 in6.2 miWest (270°)4.6 mph
2:50 AM26.6 °F24.8 °F93 %29.30 in6.2 miWSW (250°)3.5 mph
3:00 AM27.0 °F26.0 °F92 %29.34 in31.0 miSSW (200°)2.2 mph
3:20 AM26.6 °F24.8 °F93 %29.33 in6.2 miVariable2.3 mph
3:50 AM24.8 °F24.8 °F100 %29.33 in6.2 miSW (220°)2.3 mph
4:20 AM24.8 °F24.8 °F100 %29.33 in6.2 miSW (220°)4.6 mph
4:50 AM24.8 °F24.8 °F100 %29.33 in6.2 miSW (220°)4.6 mph
5:00 AM26.0 °F25.0 °F95 %29.36 in28.0 miSW (220°)4.5 mph
5:20 AM24.8 °F24.8 °F100 %29.33 in6.2 miSW (220°)4.6 mph
5:50 AM24.8 °F23.0 °F93 %29.33 in6.2 miSW (220°)4.6 mph
6:00 AM24.0 °F24.0 °F98 %29.36 in25.0 miSW (220°)4.5 mphClear
6:20 AM24.8 °F23.0 °F93 %29.33 in6.2 miSW (220°)4.6 mph
6:50 AM24.8 °F23.0 °F93 %29.33 inSW (220°)4.6 mphClear
7:00 AM24.0 °F24.0 °F100 %29.37 in31.0 miSSW (210°)4.5 mph
7:20 AM23.0 °F23.0 °F100 %29.33 inSW (220°)5.8 mphClear
7:50 AM23.0 °F23.0 °F100 %29.33 inSW (220°)5.8 mphClear
8:00 AM24.0 °F23.0 °F96 %29.38 in25.0 miSW (220°)6.7 mphScattered Clouds
8:20 AM23.0 °F23.0 °F100 %29.36 inSW (220°)4.6 mphClear
8:50 AM23.0 °F23.0 °F100 %29.36 inSW (220°)4.6 mphClear
9:00 AM24.0 °F24.0 °F99 %29.38 in25.0 miSSW (210°)4.5 mphClear
9:20 AM24.8 °F24.8 °F100 %29.36 inSW (220°)5.8 mphClear
9:50 AM26.6 °F26.6 °F100 %29.36 in6.2 miSW (220°)6.9 mph
10:20 AM28.4 °F26.6 °F93 %29.36 inSW (220°)5.8 mphClear
10:50 AM30.2 °F28.4 °F93 %29.36 inSW (220°)4.6 mphClear
11:00 AM32.0 °F29.0 °F84 %29.38 in31.0 miSW (220°)4.5 mphClear
11:50 AM32.0 °F28.4 °F87 %29.36 inSSW (210°)3.5 mphClear
12:20 PM32.0 °F28.4 °F87 %29.36 inSW (220°)5.8 mphClear
12:50 PM33.8 °F28.4 °F81 %29.36 inSW (220°)3.5 mphClear
1:00 PM33.0 °F29.0 °F81 %29.37 in31.0 miWSW (240°)2.2 mph
1:50 PM33.8 °F28.4 °F81 %29.36 inWest (280°)4.6 mphClear
2:00 PM34.0 °F29.0 °F74 %29.37 in31.0 miWest (280°)4.5 mphScattered Clouds
2:20 PM33.8 °F28.4 °F81 %29.36 inWNW (290°)3.5 mphClear
2:50 PM33.8 °F28.4 °F81 %29.33 inWest (270°)3.5 mphClear
3:00 PM33.0 °F29.0 °F80 %29.37 in28.0 miWest (270°)2.2 mphClear
3:20 PM33.8 °F28.4 °F81 %29.33 in6.2 miWest (260°)2.3 mph
3:50 PM32.0 °F28.4 °F87 %29.33 in6.2 miSW (220°)3.5 mph
4:20 PM30.2 °F26.6 °F86 %29.33 in6.2 miWest (260°)2.3 mph
4:50 PM28.4 °F24.8 °F86 %29.33 in6.2 miWest (280°)2.3 mph
5:00 PM28.0 °F26.0 °F87 %29.35 in28.0 miWest (270°)2.2 mph
5:20 PM26.6 °F24.8 °F93 %29.33 in6.2 miSW (220°)4.6 mph
5:50 PM26.6 °F24.8 °F93 %29.33 in6.2 miSW (230°)4.6 mph
6:00 PM27.0 °F25.0 °F90 %29.35 in28.0 miSW (230°)4.5 mph
6:20 PM24.8 °F24.8 °F100 %29.33 in6.2 miSW (220°)6.9 mph
6:50 PM24.8 °F24.8 °F100 %29.33 in6.2 miSW (230°)5.8 mph
7:00 PM24.0 °F24.0 °F99 %29.35 in9.0 miSW (230°)6.7 mph
7:20 PM0.0 °F32.0 °F29.33 in0.2 miSSW (210°)5.8 mph
7:50 PM24.8 °F24.8 °F100 %29.33 in0.1 miSW (220°)5.8 mphFogLight Freezing Fog
8:00 PM24.0 °F24.0 °F100 %29.34 in0.0 miSW (220°)6.7 mphFogFog
8:20 PM24.8 °F24.8 °F100 %29.33 in0.1 miSW (220°)5.8 mphFogLight Freezing Fog
8:50 PM0.0 °F32.0 °F29.33 in0.1 miSSW (210°)6.9 mph
9:00 PM24.0 °F24.0 °F98 %29.34 in0.0 miSW (220°)6.7 mphFogFog
9:20 PM24.8 °F23.0 °F93 %29.33 in0.1 miWSW (240°)4.6 mphFogLight Freezing Fog
9:50 PM23.0 °F23.0 °F100 %29.33 in0.1 miWSW (250°)5.8 mphFogLight Freezing Fog
10:20 PM23.0 °F23.0 °F100 %29.33 in0.1 miWSW (240°)3.5 mphFogLight Freezing Fog
10:50 PM0.0 °F32.0 °F29.33 in0.2 miWest (260°)4.6 mph
11:00 PM24.0 °F24.0 °F97 %29.35 in0.0 miWest (270°)4.5 mphFogFog
11:20 PM0.0 °F32.0 °F29.33 in0.2 miWSW (250°)3.5 mph
11:50 PM24.8 °F23.0 °F93 %29.33 in0.2 miWest (270°)4.6 mphFogLight Freezing Fog
Hourly data recorded from ESSL, located miles away from Hackefors, Sweden




STORIES FROM OUR PARTNERS